Weather History for KIPL - April, 2013

Change the Weather History Date:

Tuesday, April 16, 2013

  Actual Average Record
Temperature  
Mean Temperature 64 °F -  
Max Temperature 73 °F 85 °F 102 °F (1954)
Min Temperature 55 °F 55 °F 41 °F (1998)
Degree Days  
Heating Degree Days 1    
Growing Degree Days 14 (Base 50)    
Moisture  
Dew Point 35 °F    
Average Humidity 37    
Maximum Humidity 51    
Minimum Humidity 21    
Precipitation  
Precipitation 0.00 in - - ()
Sea Level Pressure  
Sea Level Pressure 29.78 in    
Wind  
Wind Speed 22 mph (West)    
Max Wind Speed 32 mph    
Max Gust Speed 43 mph    
Visibility 10 miles    
Events      
Averages and records for this station are not official NWS values.
T = Trace of Precipitation, MM = Missing Value Source: NWS Daily Summary

Daily Weather History Graph

Daily Weather History Graph

Search for Another Location

Airport or City:

Trip Planner

Search our weather history database for the weather conditions in past years. The results will help you decide how hot, cold, wet, or windy it might be!

Date:

Astronomy

Apr. 16, 2013 Rise Set
Actual Time 6:11 AM PDT 7:13 PM PDT
Civil Twilight 5:45 AM PDT 7:38 PM PDT
Nautical Twilight 5:15 AM PDT 8:09 PM PDT
Astronomical Twilight 4:44 AM PDT 8:40 PM PDT
Moon 10:41 AM PDT (4/16) 12:05 AM PDT (4/16)
Length of Visible Light 13h 53m
Length of Day
13h 02m
Waxing Crescent, 34% of the Moon is Illuminated
Apr 16
Waxing Crescent
Apr 18
First Quarter
Apr 25
Full
May 2
Last Quarter
May 9
New

Hourly Weather History & Observations

Time (PDT) Temp. Dew Point Humidity Pressure Visibility Wind Dir Wind Speed Gust Speed Precip Events Conditions
12:21 AM 62.6 °F 37.4 °F 39% 29.72 in 6.0 mi West 18.4 mph 29.9 mph N/A   Haze
12:53 AM 62.1 °F 37.0 °F 39% 29.73 in 10.0 mi West 23.0 mph 32.2 mph N/A   Clear
1:53 AM 60.1 °F 39.0 °F 46% 29.70 in 10.0 mi West 28.8 mph 36.8 mph N/A   Clear
2:53 AM 59.0 °F 39.0 °F 48% 29.73 in 10.0 mi West 24.2 mph 31.1 mph N/A   Clear
3:53 AM 57.9 °F 37.9 °F 47% 29.73 in 10.0 mi West 31.1 mph 39.1 mph N/A   Clear
4:53 AM 55.4 °F 37.4 °F 51% 29.74 in 10.0 mi West 32.2 mph 42.6 mph N/A   Clear
5:53 AM 55.0 °F 37.0 °F 51% 29.76 in 10.0 mi WSW 26.5 mph 34.5 mph N/A   Clear
6:53 AM 55.0 °F 37.0 °F 51% 29.79 in 10.0 mi WSW 26.5 mph 33.4 mph N/A   Clear
7:53 AM 57.9 °F 36.0 °F 44% 29.81 in 10.0 mi WSW 25.3 mph 35.7 mph N/A   Clear
8:53 AM 61.0 °F 35.1 °F 38% 29.82 in 10.0 mi West 25.3 mph 32.2 mph N/A   Clear
9:53 AM 64.9 °F 33.1 °F 31% 29.83 in 10.0 mi West 19.6 mph - N/A   Clear
10:53 AM 66.9 °F 30.9 °F 26% 29.84 in 10.0 mi West 18.4 mph 25.3 mph N/A   Clear
11:53 AM 70.0 °F 30.9 °F 24% 29.83 in 10.0 mi West 13.8 mph - N/A   Clear
12:53 PM 72.0 °F 30.9 °F 22% 29.81 in 10.0 mi West 13.8 mph 25.3 mph N/A   Clear
1:53 PM 72.0 °F 30.0 °F 21% 29.79 in 10.0 mi West 17.3 mph 26.5 mph N/A   Clear
2:53 PM 73.9 °F 30.9 °F 21% 29.78 in 10.0 mi West 17.3 mph 28.8 mph N/A   Clear
3:53 PM 73.0 °F 30.9 °F 21% 29.76 in 10.0 mi West 16.1 mph 26.5 mph N/A   Clear
4:53 PM 73.0 °F 32.0 °F 22% 29.75 in 10.0 mi West 21.9 mph 28.8 mph N/A   Clear
5:53 PM 69.1 °F 34.0 °F 27% 29.75 in 10.0 mi West 24.2 mph 32.2 mph N/A   Clear
6:53 PM 64.0 °F 35.1 °F 34% 29.77 in 10.0 mi West 19.6 mph 28.8 mph N/A   Clear
7:53 PM 61.0 °F 35.1 °F 38% 29.77 in 10.0 mi West 23.0 mph 31.1 mph N/A   Clear
8:53 PM 60.1 °F 36.0 °F 41% 29.82 in 10.0 mi West 21.9 mph 27.6 mph N/A   Clear
9:53 PM 59.0 °F 37.9 °F 46% 29.84 in 10.0 mi West 17.3 mph 26.5 mph N/A   Clear
10:53 PM 57.0 °F 39.0 °F 51% 29.86 in 10.0 mi West 12.7 mph - N/A   Clear
11:53 PM 59.0 °F 36.0 °F 42% 29.88 in 10.0 mi West 15.0 mph 24.2 mph N/A   Clear